Simultaneous Nadir Overpasses (SNOs) Predictions

Prediction of SNOs between GOES-16 and METOP-B Satellite Orbit:

Table of predicted SNOs for the next 14.0 days since TLE Epoch: 2/10/2024
Index Date Time (GOES-16) GOES-16 Lat,Lon METOP-B Lat,Lon Distance(km) Time Diff (sec)
1 02/10/2024 14:16:16 0.02, -75.22 -0.44, -73.05 245.97 80
2 02/12/2024 02:37:59 -0.03, -75.20 -0.55, -77.68 281.16 80
3 02/13/2024 02:14:41 -0.03, -75.21 0.53, -72.69 287.63 80
4 02/14/2024 14:36:15 0.03, -75.25 0.46, -77.27 229.75 80
5 02/15/2024 14:12:56 0.03, -75.26 -0.63, -72.28 339.33 80
6 02/17/2024 02:34:39 -0.03, -75.26 -0.41, -76.90 186.90 80
7 02/18/2024 02:11:21 -0.02, -75.27 0.74, -71.92 382.38 80
8 02/19/2024 14:32:54 0.03, -75.32 0.29, -76.49 134.27 80
9 02/20/2024 14:09:36 0.03, -75.33 -0.80, -71.51 435.55 80
10 02/22/2024 02:31:18 -0.03, -75.34 -0.21, -76.12 89.26 80
11 02/23/2024 02:08:00 -0.03, -75.36 0.89, -71.13 481.09 80
